Погода в Казанской

Россия / Ростовская область     49°47′27″N   41°09′10″E
темп.,
°C
ветер,
м/с
пор.,
м/с
влажн.,
%
обл.,
%
осадки,
мм/ч
давл.,
гПа
погр.,
м
15 мая, сб
сб1500:00+18юв3489100 0.0 101250
03:00+17юв358983 0.0 1012103
06:00+17юв3779100 0.0 1012209
09:00+21ююз3461100 0.8 1013471
12:00+25ююв226390 0.3 10141056
15:00+27юв335339 0.3 10131749
18:00+25юв45645 0.4 1013371
21:00+20з22751 0.4 101311
16 мая, вс
вс1600:00+17с36845 0.9 101498
03:00+16св358997 0.9 101477
06:00+17св3789100 0.0 1014211
09:00+22вюв3454100 0.0 1014407
12:00+26юв5635100 0.0 1014849
15:00+27юв5731100 0.0 10121451
18:00+25вюв364799 0.0 1011151
21:00+20всв495485 0.0 1011123
17 мая, пн
пн1700:00+18в41162100 0.0 1011173
03:00+17вюв41456100 0.0 1011255
06:00+17вюв515578 0.0 1011310
09:00+24вюв71543100 0.0 1011739
12:00+28юв81436100 0.0 10101814
15:00+29юв8143585 0.0 10092437
18:00+26юв51244100 0.0 1008348
21:00+20вюв411581 0.0 1009161
18 мая, вт
вт1800:00+17вюв4145298 0.0 1009255
03:00+15юв34515 0.0 100955
06:00+16юв26605 0.0 1010153
09:00+21ююз23579 0.0 1009537
12:00+25ю24469 0.0 10091411
15:00+26юз454352 0.0 10081998
18:00+22з4863100 0.0 1009239
21:00+18зюз3574100 0.2 101069
19 мая, ср
ср1900:00+17юз2778100 0.0 1010216
03:00+15ю358192 0.0 1010127
06:00+15ююз510834 0.0 1010327
09:00+20юз687143 0.0 1010929
12:00+22ююз785947 0.2 10101523
15:00+21юз696198 1.3 10101598
18:00+17юз36805 2.0 1012333
21:00+16юз2285100 2.3 101340